Location: Curupao
(10.4996°N, 66.6442°W)
Time: 23:07:42
(UTC+00:00)

Palapa 6 Rocket - Pass Details

Date: 23 May 2024
Orbit: 483 x 1187 km, 22.7° (Epoch: 15 June)

Event Time Altitude Azimuth Distance (km) Brightness Sun altitude
Rises 00:55:25 0° 256° (WSW) 3,716 7.6 -30.2°
Reaches altitude 10° 00:58:23 10° 259° (W) 2,655 6.8 -30.8°
Enters shadow 01:03:57 56° 305° (NW) 969 4.2 -31.9°
